This demonstration page uses our WeatherBlox Daily Observations layout. Learn more.

Left ArrowRight Arrow

40.92501, -98.34201

Hourly Observations for June 25, 2020

Temp ( °F °C ) Dew Point ( °F °C ) Humidity (%) Winds ( mph kmh ) Pressure ( in mb ) Visibility ( mi km ) Precip ( " mm )
12:53 am 00:53 Clear 71 21.7 56 13.3 59 59 SE 8 13 29.89 1012 10 16 0.00 0.00
1:53 am 01:53 Clear 70 21.1 56 13.3 61 61 SE 9 15 29.88 1012 10 16 0.00 0.00
2:53 am 02:53 Clear 69 20.6 56 13.3 63 63 SSE 7 11 29.87 1011 10 16 0.00 0.00
3:53 am 03:53 Clear 68 20 56 13.3 65 65 SE 10 17 29.86 1011 10 16 0.00 0.00
4:53 am 04:53 Clear 66 18.9 56 13.3 70 70 SE 12 19 29.87 1011 10 16 0.00 0.00
5:53 am 05:53 Clear 66 18.9 56 13.3 70 70 SE 13 20 29.87 1012 10 16 0.00 0.00
6:53 am 06:53 Sunny 66 18.9 58 14.4 75 75 SE 12 19 29.87 1012 10 16 0.00 0.00
7:53 am 07:53 Sunny 69 20.6 60 15.6 73 73 SSE 12 19 29.87 1012 10 16 0.00 0.00
8:53 am 08:53 Sunny 73 22.8 61 16.1 66 66 SSE 13 20 29.88 1012 10 16 0.00 0.00
9:53 am 09:53 Sunny 77 25 61 16.1 58 58 SSE 15 24 29.86 1011 10 16 0.00 0.00
10:53 am 10:53 Sunny 82 27.8 62 16.7 51 51 SSE 10 17 29.85 1011 10 16 0.00 0.00
11:53 am 11:53 Sunny 84 28.9 63 17.2 49 49 SSE 13 20 29.83 1010 10 16 0.00 0.00
12:53 pm 12:53 Sunny 87 30.6 64 17.8 46 46 SE 16 26 29.82 1010 10 16 0.00 0.00
1:53 pm 13:53 Sunny 90 32.2 64 17.8 42 42 SE 18 30 29.80 1009 10 16 0.00 0.00
2:53 pm 14:53 Sunny 92 33.3 63 17.2 38 38 SSE 17 28 29.78 1009 10 16 0.00 0.00
3:53 pm 15:53 Sunny 92 33.3 62 16.7 37 37 S 16 26 29.77 1008 10 16 0.00 0.00
4:53 pm 16:53 Sunny 94 34.4 60 15.6 32 32 S 20 31 29.75 1007 10 16 0.00 0.00
5:53 pm 17:53 Sunny 95 35 62 16.7 34 34 S 18 30 29.72 1007 10 16 0.00 0.00
6:53 pm 18:53 Sunny 94 34.4 62 16.7 35 35 S 16 26 29.72 1006 10 16 0.00 0.00
7:53 pm 19:53 Sunny 88 31.1 64 17.8 45 45 SSE 12 19 29.71 1006 10 16 0.00 0.00
8:53 pm 20:53 Sunny 86 30 61 16.1 43 43 S 12 19 29.75 1007 10 16 0.00 0.00
9:53 pm 21:53 Clear 84 28.9 60 15.6 44 44 S 15 24 29.74 1007 10 16 0.00 0.00
10:53 pm 22:53 Clear 82 27.8 59 15 46 46 S 14 22 29.77 1008 10 16 0.00 0.00
11:53 pm 23:53 Clear 82 27.8 59 15 46 46 WSW 12 19 29.83 1010 10 16 0.00 0.00

Powered by AerisWeather